Content
SEND FEEDBACK

Daily
Averages
Monthly
Summary
Mexico

PUEBLA - JARDINES DE SAN MANUEL, PUEBLA


Home > North America > Mexico > Puebla
Elevation: 6962 feet     Latitude: 19 00N     Longitude: 098 11W

WEATHER
 
SELECT A DAY
Number of Records: 123,852;   Date Range: 1/1/95 - 10/19/14
 
SHARE

PRINT THIS DATA

[ ← Previous Day ]
WEATHER ALMANAC - OCTOBER 25, 2013
[ Next Day → ]
[ °C ]   °F
Weather ElementAverageHighLow
Temperature59.8 °F71.6 °F (1:46 pm)42.8 °F (5:58 am)
Dewpoint46.4 °F51.8 °F (1:46 pm)35.6 °F (6:43 am)
Humidity60 %81 % (5:58 am)26 % (12:50 pm)
Barometer30.25 in30.41 in (10:40 pm)29.82 in (6:40 pm)
Wind Speed7.9 mph17.3 mph (9:56 am)
Weather ElementAverage
Visibility9.4 mi
Wind DirectionSSW (196.4 °)

Weather ElementTotal
Precipitation---
Heating Degree Days7.8 (Base 65)
Growing Degree Days7.2 (Base 50)
Averaged from 25 records on October 25, 2013
WEATHER CONDITIONS BREAKOUT
WIND DIRECTION BREAKOUT
WEATHER BY HOUR - OCTOBER 25, 2013
[ °C ]   °F
Local TimeTemperatureDewpointHumidityBarometerVisibilityWind DirectionWind SpeedGust SpeedPrecipitationEventsConditions
3:45 AM49.0 °F41.0 °F64 %29.96 in3.0 miCalm
5:58 AM42.8 °F37.4 °F81 %30.37 in8.0 miNW (310°)6.9 mphClear
6:43 AM44.6 °F35.6 °F71 %30.38 in8.0 miWNW (300°)6.9 mphClear
6:45 AM46.0 °F38.0 °F67 %30.04 in6.0 miCalm
7:43 AM44.6 °F37.4 °F76 %30.39 in10.0 miNW (320°)3.5 mphClear
8:43 AM55.4 °F42.8 °F63 %30.39 in10.0 miNW (320°)9.2 mphPartly Cloudy
9:50 AM55.0 °F44.0 °F56 %30.10 in12.0 miCalmClear
9:56 AM62.6 °F48.2 °F59 %30.40 in10.0 miNNW (340°)17.3 mphScattered Clouds
10:41 AM66.2 °F50.0 °F56 %30.40 in10.0 miNNE (20°)6.9 mphScattered Clouds
11:43 AM68.0 °F50.0 °F52 %30.39 in10.0 miNNW (340°)12.7 mphMostly Cloudy
12:44 PM68.0 °F50.0 °F52 %30.37 in10.0 miNE (40°)9.2 mphMostly Cloudy
12:50 PM71.0 °F44.0 °F26 %30.04 in12.0 miWNW (300°)2.2 mphMostly Cloudy
1:46 PM71.6 °F51.8 °F50 %30.36 in10.0 miENE (60°)12.7 mphMostly Cloudy
2:50 PM69.8 °F51.8 °F53 %30.34 in10.0 miENE (60°)12.7 mphMostly Cloudy
3:40 PM68.0 °F46.0 °F34 %29.90 in12.0 miNorth2.2 mphMostly Cloudy
3:49 PM69.8 °F50.0 °F49 %30.32 in10.0 miNNE (20°)11.5 mphMostly Cloudy
4:44 PM66.2 °F50.0 °F56 %30.32 in10.0 miNE (40°)12.7 mphScattered Clouds
5:45 PM62.6 °F50.0 °F63 %30.33 in10.0 miNNE (20°)10.4 mphOvercast
6:40 PM65.0 °F47.0 °F42 %29.82 in12.0 miSE (140°)2.2 mphMostly Cloudy
6:45 PM59.0 °F50.0 °F72 %30.35 in10.0 miNorth (360°)6.9 mphMostly Cloudy
7:46 PM59.0 °F48.2 °F67 %30.36 in10.0 miNorth (10°)16.1 mphMostly Cloudy
8:48 PM57.2 °F50.0 °F77 %30.38 in10.0 miNorth (360°)8.1 mphMostly Cloudy
9:45 PM59.0 °F48.0 °F59 %29.83 in3.0 miWest (270°)2.2 mphScattered Clouds
9:46 PM57.2 °F50.0 °F77 %30.40 in10.0 miNorth (350°)13.8 mphMostly Cloudy
10:40 PM57.2 °F50.0 °F77 %30.41 in10.0 miNNW (340°)11.5 mphMostly Cloudy
Hourly data recorded from MMPB, located miles away from Puebla - Jardines de San Manuel, Puebla







STORIES FROM OUR PARTNERS